Regional Weather Roundup
Issued by NWS Northern Indiana

Home | Current Version | Previous Version | Graphics & Text | Print | Product List | Glossary On
Versions: 1 2 3 4 5 6 7 8 9 10 11 12 13 14 15 16 17 18 19 20 21 22 23 24 25 26 27 28 29 30 31 32 33 34 35 36 37 38 39 40 41 42 43 44 45 46 47 48 49 50
000
ASUS43 KIWX 250300
RWRIWX

KIWX WEATHER ROUNDUP
NATIONAL WEATHER SERVICE NORTHERN INDIANA
1000 PM EST FRI FEB 24 2017

NOTE: "FAIR" INDICATES FEW OR NO CLOUDS BELOW 12,000 FEET WITH NO
SIGNIFICANT WEATHER AND/OR OBSTRUCTIONS TO VISIBILITY.

* THESE STATIONS ARE NOT UNDER NWS QUALITY CONTROL. THEY ALSO MAY NOT
  REPORT WEATHER SUCH AS PRECIPITATION OR FOG.

INZ001>027-250400-
NORTHERN INDIANA

CITY           SKY/WX    TMP DP  RH WIND       PRES   REMARKS
GARY*          MOCLDY    43  34  70 W12       29.59R
MICHIGAN CITY* CLOUDY    36  36 100 CALM      29.59R FOG
KNOX*          CLOUDY    41  21  45 W22G29    29.59R
SOUTH BEND     CLOUDY    38  37  97 NW12      29.56R
GOSHEN         CLOUDY    44  39  82 W18G24    29.56R
ANGOLA*        CLOUDY    46  41  81 W14       29.53R
FORT WAYNE     CLOUDY    49  45  86 W18       29.53R
PERU/GRISSOM   CLOUDY    44  40  88 W23G30    29.60R

$$
INZ028>050-250400-
CENTRAL INDIANA

CITY           SKY/WX    TMP DP  RH WIND       PRES   REMARKS
LAFAYETTE      CLOUDY    43  37  79 W10       29.63R
KOKOMO*        CLOUDY    44  39  82 W23G31    29.62R
MUNCIE*        CLOUDY    51  47  86 W14       29.59R
INDIANAPOLIS   CLOUDY    48  42  80 W15       29.64S

$$
MIZ043>046-050>051-056>058-064>065-071>073-077>080-250400-
SOUTHWEST LOWER MICHIGAN

CITY           SKY/WX    TMP DP  RH WIND       PRES   REMARKS
BATTLE CREEK   CLOUDY    43  41  93 W20G26    29.50R
BENTON HARBOR  CLOUDY    37  35  92 W14       29.57R
COLDWATER*     CLOUDY    46  45  96 W15G21    29.51R FOG
HILLSDALE*     RAIN      50  46  87 W15G23    29.46R
HOLLAND        FOG       38  36  92 SW14G22   29.51R VSB 1/2
GRAND RAPIDS   CLOUDY    43  39  86 SW20      29.47R
KALAMAZOO      CLOUDY    42  37  82 W18G29    29.53R
STURGIS*       CLOUDY    43  42  97 W13G18    29.53R FOG
THREE RIVERS*  CLOUDY    42  39  90 W12G21    29.55R

$$
OHZ001>008-015>018-024>025-250400-
NORTHWEST OHIO

CITY           SKY/WX    TMP DP  RH WIND       PRES   REMARKS
DEFIANCE       LGT RAIN  54  51  90 W8G17     29.49R
FINDLAY        TSTM      62  53  72 S23G31    29.45S
TOLEDO EXPRESS TSTM      60  54  80 SW9       29.44S
TOLEDO METCALF CLOUDY    61  54  77 SW9       29.43F
LIMA           CLOUDY    60  54  80 S15       29.48S

$$
AND FOR LAKE MICHIGAN COASTAL AND OPEN LAKE BUOY OBSERVATIONS

STATION/POSITION TEMP    WIND        PRES    VSBY  WAVE
                 AIR SEA DIR/SP/G                  HT/PER
                 (F)     (DEG/KT/KT) (MB)    (MI)  (FT/S)
CALUMET HARBOR    40     230/ 10/ 13 1001.4R
MICHIGAN CITY     36     230/  6/  7   N/A
BURNS HARBOR      41     260/ 14/ 20 1002.4R
SAINT JOSEPH      37     270/  9/ 14 1001.0

$$
&&



USA.gov is the U.S. government's official web portal to all federal, state and local government web resources and services.